When you browse on this site, cookies collect data to enhance your experience and personalize the content and advertising you see.
Visit our Privacy Policy to learn more. By continuing to use the site, you agree to this use of cookies and data.
  • în România
  • Lista ţărilor
  • Pe 7 zile
  • Temperatura apei
  • Hartă satelitară
  • Meteo pe hartă
  • Widget-uri
  • user-avatar
    Intrare

    Meteo pe oră la Novoantonovka

    Astăzi, 26 Martie, Marţi

    Timp Temperatura Precipitaţii Vânt Presiune Umiditate
    00:00 -5°C° 0 mm 3 m/s 754 mmHg 93%
    01:00 -6°C° 0 mm 3 m/s 754 mmHg 92%
    02:00 -6°C° 0 mm 3 m/s 755 mmHg 91%
    03:00 -5°C° 0 mm 2 m/s 755 mmHg 90%
    04:00 -5°C° 0 mm 2 m/s 755 mmHg 89%
    05:00 -6°C° 0 mm 3 m/s 756 mmHg 88%
    06:00 -6°C° 0 mm 3 m/s 756 mmHg 87%
    07:00 -5°C° 0 mm 3 m/s 756 mmHg 86%
    08:00 -3°C° 0 mm 4 m/s 756 mmHg 86%
    09:00 -2°C° 0 mm 4 m/s 756 mmHg 85%
    10:00 -1°C° 0 mm 5 m/s 756 mmHg 90%
    11:00 -1°C° 0 mm 5 m/s 756 mmHg 94%
    12:00 -1°C° 0 mm 6 m/s 756 mmHg 98%
    13:00 -1°C° 0 mm 6 m/s 755 mmHg 99%
    14:00 -1°C° 0 mm 6 m/s 755 mmHg 99%
    15:00 +1°C° 0 mm 6 m/s 754 mmHg 99%
    16:00 +1°C° 0.2 mm 6 m/s 754 mmHg 98%
    17:00 +1°C° 0.2 mm 5 m/s 754 mmHg 98%
    18:00 +1°C° 0.2 mm 5 m/s 754 mmHg 97%
    19:00 0°C° 0.4 mm 5 m/s 754 mmHg 96%
    20:00 0°C° 0.4 mm 4 m/s 754 mmHg 95%
    21:00 0°C° 0.4 mm 4 m/s 754 mmHg 94%
    22:00 0°C° 0.5 mm 4 m/s 755 mmHg 94%
    23:00 +1°C° 0.5 mm 3 m/s 755 mmHg 94%

    Mâine, 27 Martie, Miercuri

    Timp Temperatura Precipitaţii Vânt Presiune Umiditate
    00:00 +1°C° 0.5 mm 3 m/s 755 mmHg 94%
    01:00 0°C° 0.3 mm 4 m/s 755 mmHg 93%
    02:00 0°C° 0.3 mm 4 m/s 755 mmHg 92%
    03:00 0°C° 0.3 mm 4 m/s 755 mmHg 91%
    04:00 0°C° 0.3 mm 5 m/s 755 mmHg 90%
    05:00 0°C° 0.3 mm 5 m/s 755 mmHg 89%
    06:00 0°C° 0.3 mm 5 m/s 755 mmHg 87%
    07:00 -1°C° 0.1 mm 6 m/s 755 mmHg 86%
    08:00 -1°C° 0.1 mm 6 m/s 755 mmHg 85%
    09:00 -1°C° 0.1 mm 6 m/s 755 mmHg 85%
    10:00 -1°C° 0 mm 6 m/s 755 mmHg 86%
    11:00 +1°C° 0 mm 6 m/s 755 mmHg 88%
    12:00 +1°C° 0 mm 6 m/s 755 mmHg 89%
    13:00 +1°C° 0 mm 5 m/s 755 mmHg 88%
    14:00 +2°C° 0 mm 5 m/s 755 mmHg 88%
    15:00 +3°C° 0 mm 4 m/s 755 mmHg 87%
    16:00 +3°C° 0 mm 4 m/s 755 mmHg 87%
    17:00 +1°C° 0 mm 4 m/s 755 mmHg 88%
    18:00 +1°C° 0 mm 3 m/s 755 mmHg 88%
    19:00 +1°C° 0 mm 3 m/s 755 mmHg 87%
    20:00 +1°C° 0 mm 3 m/s 755 mmHg 85%
    21:00 +1°C° 0 mm 3 m/s 755 mmHg 84%
    22:00 +2°C° 0.1 mm 2 m/s 754 mmHg 83%
    23:00 +2°C° 0.1 mm 2 m/s 754 mmHg 83%

    Poimâine, 28 Martie, Joi

    Timp Temperatura Precipitaţii Vânt Presiune Umiditate
    00:00 +3°C° 0.1 mm 1 m/s 754 mmHg 83%
    01:00 +3°C° 0.3 mm 1 m/s 754 mmHg 83%
    02:00 +3°C° 0.3 mm 1 m/s 754 mmHg 84%
    03:00 +3°C° 0.3 mm 1 m/s 754 mmHg 85%
    04:00 +2°C° 0.1 mm 1 m/s 754 mmHg 86%
    05:00 +2°C° 0.1 mm 1 m/s 754 mmHg 87%
    06:00 +2°C° 0.1 mm 1 m/s 754 mmHg 88%
    07:00 +2°C° 0.2 mm 1 m/s 754 mmHg 90%
    08:00 +3°C° 0.2 mm 1 m/s 754 mmHg 93%
    09:00 +2°C° 0.2 mm 2 m/s 754 mmHg 95%
    10:00 +2°C° 1.3 mm 2 m/s 754 mmHg 96%
    11:00 +2°C° 1.3 mm 2 m/s 754 mmHg 97%
    12:00 +2°C° 1.3 mm 2 m/s 754 mmHg 98%
    13:00 +1°C° 0.1 mm 3 m/s 753 mmHg 98%
    14:00 +1°C° 0.1 mm 3 m/s 753 mmHg 98%
    15:00 0°C° 0.1 mm 4 m/s 753 mmHg 97%
    16:00 0°C° 0.3 mm 5 m/s 753 mmHg 96%
    17:00 -1°C° 0.3 mm 5 m/s 753 mmHg 94%
    18:00 -2°C° 0.3 mm 6 m/s 754 mmHg 93%
    19:00 -2°C° 0.3 mm 6 m/s 754 mmHg 91%
    20:00 -2°C° 0.3 mm 6 m/s 754 mmHg 89%
    21:00 -2°C° 0.3 mm 6 m/s 755 mmHg 87%
    22:00 -3°C° 0 mm 6 m/s 755 mmHg 88%
    23:00 -4°C° 0 mm 6 m/s 755 mmHg 88%

    29 Martie, Vineri

    Timp Temperatura Precipitaţii Vânt Presiune Umiditate
    00:00 -4°C° 0 mm 6 m/s 755 mmHg 88%
    01:00 -5°C° 0 mm 6 m/s 755 mmHg 89%
    02:00 -5°C° 0 mm 5 m/s 756 mmHg 89%
    03:00 -6°C° 0 mm 5 m/s 756 mmHg 89%
    04:00 -6°C° 0 mm 5 m/s 756 mmHg 89%
    05:00 -6°C° 0 mm 5 m/s 756 mmHg 89%
    06:00 -7°C° 0 mm 5 m/s 757 mmHg 89%
    07:00 -6°C° 0 mm 5 m/s 757 mmHg 88%
    08:00 -5°C° 0 mm 5 m/s 757 mmHg 86%
    09:00 -4°C° 0 mm 6 m/s 758 mmHg 85%
    10:00 -4°C° 0 mm 6 m/s 758 mmHg 85%
    11:00 -3°C° 0 mm 6 m/s 758 mmHg 84%
    12:00 -3°C° 0 mm 6 m/s 758 mmHg 84%
    13:00 -2°C° 0 mm 6 m/s 758 mmHg 83%
    14:00 -2°C° 0 mm 6 m/s 758 mmHg 81%
    15:00 -1°C° 0 mm 5 m/s 758 mmHg 80%
    16:00 -1°C° 0 mm 5 m/s 759 mmHg 80%
    17:00 -2°C° 0 mm 5 m/s 759 mmHg 81%
    18:00 -2°C° 0 mm 4 m/s 759 mmHg 81%
    19:00 -3°C° 0 mm 4 m/s 759 mmHg 82%
    20:00 -4°C° 0 mm 3 m/s 760 mmHg 84%
    21:00 -4°C° 0 mm 3 m/s 760 mmHg 85%
    22:00 -4°C° 0 mm 3 m/s 760 mmHg 85%
    23:00 -5°C° 0 mm 3 m/s 760 mmHg 86%

    30 Martie, Sâmbătă

    Timp Temperatura Precipitaţii Vânt Presiune Umiditate
    00:00 -5°C° 0 mm 3 m/s 760 mmHg 86%
    01:00 -5°C° 0 mm 3 m/s 759 mmHg 86%
    02:00 -4°C° 0 mm 2 m/s 759 mmHg 86%
    03:00 -4°C° 0 mm 2 m/s 759 mmHg 85%
    04:00 -3°C° 0 mm 2 m/s 759 mmHg 86%
    05:00 -3°C° 0 mm 2 m/s 759 mmHg 87%
    06:00 -3°C° 0 mm 2 m/s 759 mmHg 88%
    07:00 -2°C° 0 mm 3 m/s 759 mmHg 86%
    08:00 -1°C° 0 mm 3 m/s 759 mmHg 83%
    09:00 0°C° 0 mm 3 m/s 759 mmHg 81%
    10:00 0°C° 0 mm 4 m/s 759 mmHg 81%
    11:00 +1°C° 0 mm 4 m/s 759 mmHg 80%
    12:00 +3°C° 0 mm 4 m/s 759 mmHg 80%
    13:00 +2°C° 0.1 mm 5 m/s 759 mmHg 81%
    14:00 +2°C° 0.1 mm 5 m/s 759 mmHg 82%
    15:00 +2°C° 0.1 mm 5 m/s 759 mmHg 83%
    16:00 +3°C° 0 mm 4 m/s 759 mmHg 86%
    17:00 +1°C° 0 mm 4 m/s 759 mmHg 88%
    18:00 0°C° 0 mm 4 m/s 758 mmHg 91%
    19:00 0°C° 0 mm 4 m/s 759 mmHg 92%
    20:00 0°C° 0 mm 4 m/s 759 mmHg 92%
    21:00 -1°C° 0 mm 4 m/s 759 mmHg 92%
    22:00 0°C° 0 mm 4 m/s 759 mmHg 92%
    23:00 0°C° 0 mm 5 m/s 759 mmHg 91%

    31 Martie, Duminică

    Timp Temperatura Precipitaţii Vânt Presiune Umiditate
    00:00 0°C° 0 mm 5 m/s 759 mmHg 90%
    01:00 0°C° 0 mm 5 m/s 759 mmHg 90%
    02:00 0°C° 0 mm 4 m/s 759 mmHg 90%
    03:00 0°C° 0 mm 4 m/s 759 mmHg 90%
    04:00 -1°C° 0 mm 4 m/s 759 mmHg 91%
    05:00 -1°C° 0 mm 4 m/s 759 mmHg 92%
    06:00 0°C° 0 mm 3 m/s 759 mmHg 92%
    07:00 +1°C° 0 mm 3 m/s 759 mmHg 90%
    08:00 +3°C° 0 mm 3 m/s 759 mmHg 88%
    09:00 +4°C° 0 mm 3 m/s 760 mmHg 86%
    10:00 +5°C° 0 mm 4 m/s 760 mmHg 83%
    11:00 +7°C° 0 mm 4 m/s 760 mmHg 80%
    12:00 +8°C° 0 mm 4 m/s 760 mmHg 78%
    13:00 +10°C° 0 mm 4 m/s 759 mmHg 75%
    14:00 +11°C° 0 mm 4 m/s 759 mmHg 73%
    15:00 +12°C° 0 mm 4 m/s 759 mmHg 71%
    16:00 +11°C° 0 mm 4 m/s 759 mmHg 73%
    17:00 +10°C° 0 mm 3 m/s 759 mmHg 76%
    18:00 +9°C° 0 mm 2 m/s 758 mmHg 78%
    19:00 +8°C° 0 mm 3 m/s 759 mmHg 79%
    20:00 +7°C° 0 mm 3 m/s 759 mmHg 79%
    21:00 +5°C° 0 mm 3 m/s 759 mmHg 80%
    22:00 +5°C° 0 mm 3 m/s 759 mmHg 78%
    23:00 +4°C° 0 mm 3 m/s 759 mmHg 77%
    Arată mai mult